Location: Bremen
(53.0793°N, 8.8017°E)
Time: 11:35:24
(UTC+02:00)

Altair - Pass Details

Date: 14 April 2024
Orbit: 1501 x 1682 km, 47.2° (Epoch: 17 May)

Event Time Altitude Azimuth Distance (km) Brightness Sun altitude
Rises 21:57:46 0° 223° (SW) 4,892 10.2 -13.3°
Reaches altitude 10° 22:01:09 10° 217° (SW) 3,888 9.6 -13.7°
Maximum altitude 22:10:13 42° 151° (SSE) 2,159 7.8 -14.8°
Drops below altitude 10° 22:18:59 10° 85° (E) 3,768 9.2 -15.7°
Sets 22:22:12 0° 78° (ENE) 4,730 9.7 -16.1°
